Time,TemperatureF,DewpointF,PressureIn,WindDirection,WindDirectionDegrees,WindSpeedMPH,WindSpeedGustMPH,Humidity,HourlyPrecipIn,Conditions,Clouds,dailyrainin,SolarRadiationWatts/m^2,SoftwareType,DateUTC
2013-05-09 00:21:00,68.0,35.0,-100.00,NE,44,8.0,21.0,29,0.00,,,0.00,408.000000,,2013-05-09 00:21:00,
2013-05-09 00:32:00,68.0,35.0,-100.00,NE,44,8.0,21.0,29,0.00,,,0.00,408.000000,,2013-05-09 00:32:00,
2013-05-09 00:42:00,68.0,35.0,-100.00,NE,44,8.0,21.0,29,0.00,,,0.00,408.000000,,2013-05-09 00:42:00,
2013-05-09 00:52:00,68.0,35.0,-100.00,NE,44,8.0,21.0,29,0.00,,,0.00,408.000000,,2013-05-09 00:52:00,
2013-05-09 01:22:00,66.0,34.0,-100.00,NE,37,7.0,20.0,30,0.00,,,0.00,246.000000,,2013-05-09 01:22:00,
2013-05-09 01:32:00,66.0,34.0,-100.00,NE,37,7.0,20.0,30,0.00,,,0.00,246.000000,,2013-05-09 01:32:00,
2013-05-09 01:42:00,66.0,34.0,-100.00,NE,37,7.0,20.0,30,0.00,,,0.00,246.000000,,2013-05-09 01:42:00,
2013-05-09 01:52:00,66.0,34.0,-100.00,NE,37,7.0,20.0,30,0.00,,,0.00,246.000000,,2013-05-09 01:52:00,
2013-05-09 02:22:00,62.0,33.0,-100.00,ENE,58,8.0,19.0,34,0.00,,,0.00,49.000000,,2013-05-09 02:22:00,
2013-05-09 02:32:00,62.0,33.0,-100.00,ENE,58,8.0,19.0,34,0.00,,,0.00,49.000000,,2013-05-09 02:32:00,
2013-05-09 02:42:00,62.0,33.0,-100.00,ENE,58,8.0,19.0,34,0.00,,,0.00,49.000000,,2013-05-09 02:42:00,
2013-05-09 02:52:00,62.0,33.0,-100.00,ENE,58,8.0,19.0,34,0.00,,,0.00,49.000000,,2013-05-09 02:52:00,
2013-05-09 03:21:00,59.0,33.0,-100.00,ENE,77,7.0,17.0,38,0.00,,,0.00,2.000000,,2013-05-09 03:21:00,
2013-05-09 03:33:00,59.0,33.0,-100.00,ENE,77,7.0,17.0,38,0.00,,,0.00,2.000000,,2013-05-09 03:33:00,
2013-05-09 03:43:00,59.0,33.0,-100.00,ENE,77,7.0,17.0,38,0.00,,,0.00,2.000000,,2013-05-09 03:43:00,
2013-05-09 03:52:00,59.0,33.0,-100.00,ENE,77,7.0,17.0,38,0.00,,,0.00,2.000000,,2013-05-09 03:52:00,
2013-05-09 04:23:00,59.0,33.0,-100.00,ENE,63,7.0,17.0,37,0.00,,,0.00,0.000000,,2013-05-09 04:23:00,
2013-05-09 04:33:00,59.0,33.0,-100.00,ENE,63,7.0,17.0,37,0.00,,,0.00,0.000000,,2013-05-09 04:33:00,
2013-05-09 04:43:00,59.0,33.0,-100.00,ENE,63,7.0,17.0,37,0.00,,,0.00,0.000000,,2013-05-09 04:43:00,
2013-05-09 04:52:00,59.0,33.0,-100.00,ENE,63,7.0,17.0,37,0.00,,,0.00,0.000000,,2013-05-09 04:52:00,
2013-05-09 05:22:00,57.0,34.0,-100.00,ENE,63,7.0,18.0,41,0.00,,,0.00,0.000000,,2013-05-09 05:22:00,
2013-05-09 05:32:00,57.0,34.0,-100.00,ENE,63,7.0,18.0,41,0.00,,,0.00,0.000000,,2013-05-09 05:32:00,
2013-05-09 05:42:00,57.0,34.0,-100.00,ENE,63,7.0,18.0,41,0.00,,,0.00,0.000000,,2013-05-09 05:42:00,
2013-05-09 05:51:00,57.0,34.0,-100.00,ENE,63,7.0,18.0,41,0.00,,,0.00,0.000000,,2013-05-09 05:51:00,
2013-05-09 06:21:00,56.0,35.0,-100.00,ENE,76,6.0,18.0,45,0.00,,,0.00,0.000000,,2013-05-09 06:21:00,
2013-05-09 06:32:00,56.0,35.0,-100.00,ENE,76,6.0,18.0,45,0.00,,,0.00,0.000000,,2013-05-09 06:32:00,
2013-05-09 06:42:00,56.0,35.0,-100.00,ENE,76,6.0,18.0,45,0.00,,,0.00,0.000000,,2013-05-09 06:42:00,
2013-05-09 06:52:00,56.0,35.0,-100.00,ENE,76,6.0,18.0,45,0.00,,,0.00,0.000000,,2013-05-09 06:52:00,
2013-05-09 07:21:00,52.0,36.0,-100.00,NE,45,3.0,11.0,54,0.00,,,0.00,0.000000,,2013-05-09 07:21:00,
2013-05-09 07:32:00,52.0,36.0,-100.00,NE,45,3.0,11.0,54,0.00,,,0.00,0.000000,,2013-05-09 07:32:00,
2013-05-09 07:42:00,52.0,36.0,-100.00,NE,45,3.0,11.0,54,0.00,,,0.00,0.000000,,2013-05-09 07:42:00,
2013-05-09 07:52:00,52.0,36.0,-100.00,NE,45,3.0,11.0,54,0.00,,,0.00,0.000000,,2013-05-09 07:52:00,
2013-05-09 08:21:00,50.0,36.0,-100.00,NW,307,2.0,8.0,59,0.00,,,0.00,0.000000,,2013-05-09 08:21:00,
2013-05-09 08:32:00,50.0,36.0,-100.00,NW,307,2.0,8.0,59,0.00,,,0.00,0.000000,,2013-05-09 08:32:00,
2013-05-09 08:42:00,50.0,36.0,-100.00,NW,307,2.0,8.0,59,0.00,,,0.00,0.000000,,2013-05-09 08:42:00,
2013-05-09 08:51:00,50.0,36.0,-100.00,NW,307,2.0,8.0,59,0.00,,,0.00,0.000000,,2013-05-09 08:51:00,
2013-05-09 09:21:00,50.0,37.0,-100.00,North,360,3.0,6.0,61,0.00,,,0.00,0.000000,,2013-05-09 09:21:00,
2013-05-09 09:32:00,50.0,37.0,-100.00,North,360,3.0,6.0,61,0.00,,,0.00,0.000000,,2013-05-09 09:32:00,
2013-05-09 09:42:00,50.0,37.0,-100.00,North,360,3.0,6.0,61,0.00,,,0.00,0.000000,,2013-05-09 09:42:00,
2013-05-09 09:52:00,50.0,37.0,-100.00,North,360,3.0,6.0,61,0.00,,,0.00,0.000000,,2013-05-09 09:52:00,
2013-05-09 10:22:00,50.0,38.0,-100.00,NNW,332,3.0,7.0,62,0.00,,,0.00,0.000000,,2013-05-09 10:22:00,
2013-05-09 10:33:00,50.0,38.0,-100.00,NNW,332,3.0,7.0,62,0.00,,,0.00,0.000000,,2013-05-09 10:33:00,
2013-05-09 10:42:00,50.0,38.0,-100.00,NNW,332,3.0,7.0,62,0.00,,,0.00,0.000000,,2013-05-09 10:42:00,
2013-05-09 10:52:00,50.0,38.0,-100.00,NNW,332,3.0,7.0,62,0.00,,,0.00,0.000000,,2013-05-09 10:52:00,
2013-05-09 11:22:00,50.0,38.0,-100.00,West,275,3.0,9.0,64,0.00,,,0.00,0.000000,,2013-05-09 11:22:00,
2013-05-09 11:32:00,50.0,38.0,-100.00,West,275,3.0,9.0,64,0.00,,,0.00,0.000000,,2013-05-09 11:32:00,
2013-05-09 11:41:00,50.0,38.0,-100.00,West,275,3.0,9.0,64,0.00,,,0.00,0.000000,,2013-05-09 11:41:00,
2013-05-09 11:51:00,50.0,38.0,-100.00,West,275,3.0,9.0,64,0.00,,,0.00,0.000000,,2013-05-09 11:51:00,
2013-05-09 12:22:00,50.0,39.0,-100.00,NW,321,3.0,9.0,66,0.00,,,0.00,2.000000,,2013-05-09 12:22:00,
2013-05-09 12:32:00,50.0,39.0,-100.00,NW,321,3.0,9.0,66,0.00,,,0.00,2.000000,,2013-05-09 12:32:00,
2013-05-09 12:42:00,50.0,39.0,-100.00,NW,321,3.0,9.0,66,0.00,,,0.00,2.000000,,2013-05-09 12:42:00,
2013-05-09 12:52:00,50.0,39.0,-100.00,NW,321,3.0,9.0,66,0.00,,,0.00,2.000000,,2013-05-09 12:52:00,
2013-05-09 13:22:00,52.0,40.0,-100.00,ENE,63,2.0,5.0,64,0.00,,,0.00,47.000000,,2013-05-09 13:22:00,
2013-05-09 13:32:00,52.0,40.0,-100.00,ENE,63,2.0,5.0,64,0.00,,,0.00,47.000000,,2013-05-09 13:32:00,
2013-05-09 13:42:00,52.0,40.0,-100.00,ENE,63,2.0,5.0,64,0.00,,,0.00,47.000000,,2013-05-09 13:42:00,
2013-05-09 13:52:00,52.0,40.0,-100.00,ENE,63,2.0,5.0,64,0.00,,,0.00,47.000000,,2013-05-09 13:52:00,
2013-05-09 14:21:00,57.0,43.0,-100.00,ENE,64,2.0,5.0,59,0.00,,,0.00,169.000000,,2013-05-09 14:21:00,
2013-05-09 14:32:00,57.0,43.0,-100.00,ENE,64,2.0,5.0,59,0.00,,,0.00,169.000000,,2013-05-09 14:32:00,
2013-05-09 14:42:00,57.0,43.0,-100.00,ENE,64,2.0,5.0,59,0.00,,,0.00,169.000000,,2013-05-09 14:42:00,
2013-05-09 14:52:00,57.0,43.0,-100.00,ENE,64,2.0,5.0,59,0.00,,,0.00,169.000000,,2013-05-09 14:52:00,
2013-05-09 15:22:00,58.0,43.0,-100.00,SW,223,5.0,7.0,57,0.00,,,0.00,458.000000,,2013-05-09 15:22:00,
2013-05-09 15:33:00,58.0,43.0,-100.00,SW,223,5.0,7.0,57,0.00,,,0.00,458.000000,,2013-05-09 15:33:00,
2013-05-09 15:43:00,58.0,43.0,-100.00,SW,223,5.0,7.0,57,0.00,,,0.00,458.000000,,2013-05-09 15:43:00,
2013-05-09 15:52:00,58.0,43.0,-100.00,SW,223,5.0,7.0,57,0.00,,,0.00,458.000000,,2013-05-09 15:52:00,
2013-05-09 16:23:00,60.0,43.0,-100.00,South,171,5.0,8.0,54,0.00,,,0.00,504.000000,,2013-05-09 16:23:00,
2013-05-09 16:33:00,60.0,43.0,-100.00,South,171,5.0,8.0,54,0.00,,,0.00,504.000000,,2013-05-09 16:33:00,
2013-05-09 16:42:00,60.0,43.0,-100.00,South,171,5.0,8.0,54,0.00,,,0.00,504.000000,,2013-05-09 16:42:00,
2013-05-09 16:52:00,60.0,43.0,-100.00,South,171,5.0,8.0,54,0.00,,,0.00,504.000000,,2013-05-09 16:52:00,
2013-05-09 17:21:00,58.0,42.0,-100.00,SSW,204,7.0,12.0,56,0.00,,,0.00,558.000000,,2013-05-09 17:21:00,
2013-05-09 17:32:00,58.0,42.0,-100.00,SSW,204,7.0,12.0,56,0.00,,,0.00,558.000000,,2013-05-09 17:32:00,
2013-05-09 17:42:00,58.0,42.0,-100.00,SSW,204,7.0,12.0,56,0.00,,,0.00,558.000000,,2013-05-09 17:42:00,
2013-05-09 17:55:00,58.0,42.0,-100.00,SSW,204,7.0,12.0,56,0.00,,,0.00,558.000000,,2013-05-09 17:55:00,
2013-05-09 18:21:00,62.0,39.0,-100.00,SSE,147,5.0,15.0,43,0.00,,,0.00,443.000000,,2013-05-09 18:21:00,
2013-05-09 18:32:00,62.0,39.0,-100.00,SSE,147,5.0,15.0,43,0.00,,,0.00,443.000000,,2013-05-09 18:32:00,
2013-05-09 18:42:00,62.0,39.0,-100.00,SSE,147,5.0,15.0,43,0.00,,,0.00,443.000000,,2013-05-09 18:42:00,
2013-05-09 18:52:00,62.0,39.0,-100.00,SSE,147,5.0,15.0,43,0.00,,,0.00,443.000000,,2013-05-09 18:52:00,
2013-05-09 19:21:00,61.0,40.0,-100.00,SSW,206,1.0,12.0,46,0.00,,,0.00,350.000000,,2013-05-09 19:21:00,
2013-05-09 19:31:00,61.0,40.0,-100.00,SSW,206,1.0,12.0,46,0.00,,,0.00,350.000000,,2013-05-09 19:31:00,
2013-05-09 19:41:00,61.0,40.0,-100.00,SSW,206,1.0,12.0,46,0.00,,,0.00,350.000000,,2013-05-09 19:41:00,
2013-05-09 19:52:00,61.0,40.0,-100.00,SSW,206,1.0,12.0,46,0.00,,,0.00,350.000000,,2013-05-09 19:52:00,
2013-05-09 20:22:00,56.0,43.0,-100.00,NW,310,3.0,7.0,62,0.00,,,0.00,137.000000,,2013-05-09 20:22:00,
2013-05-09 20:32:00,56.0,43.0,-100.00,NW,310,3.0,7.0,62,0.00,,,0.00,137.000000,,2013-05-09 20:32:00,
2013-05-09 20:42:00,56.0,43.0,-100.00,NW,310,3.0,7.0,62,0.00,,,0.00,137.000000,,2013-05-09 20:42:00,
2013-05-09 20:52:00,56.0,43.0,-100.00,NW,310,3.0,7.0,62,0.00,,,0.00,137.000000,,2013-05-09 20:52:00,
2013-05-09 21:22:00,50.0,47.0,-100.00,NNW,329,2.0,18.0,88,0.09,,,0.09,78.000000,,2013-05-09 21:22:00,
2013-05-09 21:32:00,50.0,47.0,-100.00,NNW,329,2.0,18.0,88,0.09,,,0.09,78.000000,,2013-05-09 21:32:00,
2013-05-09 21:43:00,50.0,47.0,-100.00,NNW,329,2.0,18.0,88,0.09,,,0.09,78.000000,,2013-05-09 21:43:00,
2013-05-09 21:52:00,50.0,47.0,-100.00,NNW,329,2.0,18.0,88,0.09,,,0.09,78.000000,,2013-05-09 21:52:00,
2013-05-09 22:23:00,55.0,46.0,-100.00,North,359,4.0,15.0,71,0.05,,,0.14,504.000000,,2013-05-09 22:23:00,
2013-05-09 22:33:00,55.0,46.0,-100.00,North,359,4.0,15.0,71,0.05,,,0.14,504.000000,,2013-05-09 22:33:00,
2013-05-09 22:42:00,55.0,46.0,-100.00,North,359,4.0,15.0,71,0.05,,,0.14,504.000000,,2013-05-09 22:42:00,
2013-05-09 22:52:00,55.0,46.0,-100.00,North,359,4.0,15.0,71,0.05,,,0.14,504.000000,,2013-05-09 22:52:00,
2013-05-09 23:21:00,48.0,45.0,-100.00,NNW,345,3.0,20.0,90,0.07,,,0.21,66.000000,,2013-05-09 23:21:00,
2013-05-09 23:32:00,48.0,45.0,-100.00,NNW,345,3.0,20.0,90,0.07,,,0.21,66.000000,,2013-05-09 23:32:00,
2013-05-09 23:42:00,48.0,45.0,-100.00,NNW,345,3.0,20.0,90,0.07,,,0.21,66.000000,,2013-05-09 23:42:00,
2013-05-09 23:52:00,48.0,45.0,-100.00,NNW,345,3.0,20.0,90,0.07,,,0.21,66.000000,,2013-05-09 23:52:00,